EW0351 Weather Reports


time (UTC)temp
C
wind
direction
speed
KPH
gust
KPH
rain 1hr
cm
rain 24hr
cm
rain mn
cm
humidity
%
barometer
mb
20260906191202 31 55 0.0 0.0 0.00 0.00 0.00 65 1014.2
20260906190657 30 55 0.0 0.0 0.00 0.00 0.00 67 1014.2
20260906190156 30 55 0.0 0.0 0.00 0.00 0.00 68 1014.2
20260906185656 30 53 0.0 0.0 0.00 0.00 0.00 66 1014.3
20260906185157 30 34 0.0 0.0 0.00 0.00 0.00 67 1014.4
20260906184655 30 34 0.0 0.0 0.00 0.00 0.00 67 1014.4
20260906184156 30 355 0.0 0.0 0.00 0.00 0.00 67 1014.6
20260906183656 30 244 0.0 0.0 0.00 0.00 0.00 68 1014.7
20260906183152 30 219 0.0 0.0 0.00 0.00 0.00 66 1014.7
20260906181649 29 214 0.0 0.0 0.00 0.00 0.00 67 1014.8
20260906181148 29 215 0.0 1.6 0.00 0.00 0.00 67 1014.9
20260906180144 29 225 0.0 1.6 0.00 0.00 0.00 66 1015.1
20260906175644 30 213 0.0 0.0 0.00 0.00 0.00 66 1015.2
20260906175145 30 209 0.0 0.0 0.00 0.00 0.00 65 1015.2
20260906173637 30 207 0.0 1.6 0.00 0.00 0.00 66 1015.2
20260906173131 29 276 0.0 1.6 0.00 0.00 0.00 67 1015.2
20260906172625 28 219 0.0 1.6 0.00 0.00 0.00 69 1015.3
20260906172119 28 219 0.0 1.6 0.00 0.00 0.00 69 1015.3
20260906171613 28 220 0.0 1.6 0.00 0.00 0.00 70 1015.5
20260906171107 28 250 0.0 0.0 0.00 0.00 0.00 68 1015.6
20260906170601 28 249 0.0 0.0 0.00 0.00 0.00 69 1015.8
20260906170055 28 203 0.0 0.0 0.00 0.00 0.00 68 1015.9
20260906165554 28 219 0.0 0.0 0.00 0.00 0.00 69 1016.0
20260906165054 28 211 0.0 1.6 0.00 0.00 0.00 67 1015.9
20260906164554 28 188 0.0 1.6 0.00 0.00 0.00 68 1016.0
20260906164053 28 200 0.0 0.0 0.00 0.00 0.00 67 1015.9
20260906163550 28 233 0.0 0.0 0.00 0.00 0.00 68 1015.9
20260906163051 28 270 0.0 0.0 0.00 0.00 0.00 68 1015.8
20260906161546 28 274 0.0 0.0 0.00 0.00 0.00 70 1015.9
20260906161044 28 282 0.0 0.0 0.00 0.00 0.00 71 1015.9
20260906155041 27 284 0.0 1.6 0.00 0.00 0.00 72 1016.1
20260906154538 27 284 0.0 1.6 0.00 0.00 0.00 71 1016.1
20260906153538 27 223 0.0 0.0 0.00 0.00 0.00 72 1016.0
20260906153037 27 213 0.0 3.2 0.00 0.00 0.00 73 1016.0
20260906152538 27 234 0.0 3.2 0.00 0.00 0.00 73 1015.9
20260906152037 27 225 0.0 1.6 0.00 0.00 0.00 74 1016.0
20260906151538 27 196 0.0 1.6 0.00 0.00 0.00 74 1016.0
20260906151039 27 264 0.0 0.0 0.00 0.00 0.00 74 1015.6
20260906150537 26 267 0.0 1.6 0.00 0.00 0.00 76 1015.9
20260906145539 26 242 0.0 0.0 0.00 0.00 0.00 77 1015.9
20260906145038 26 219 0.0 0.0 0.00 0.00 0.00 77 1015.8
20260906144537 26 221 0.0 1.6 0.00 0.00 0.00 77 1015.8
20260906144037 26 248 0.0 1.6 0.00 0.00 0.00 77 1015.8
20260906143538 26 173 0.0 1.6 0.00 0.00 0.00 77 1016.0
20260906143038 26 267 0.0 1.6 0.00 0.00 0.00 77 1016.0
20260906142538 26 200 0.0 3.2 0.00 0.00 0.00 76 1016.0
20260906142038 26 250 0.0 3.2 0.00 0.00 0.00 76 1016.1
20260906141532 26 288 0.0 1.6 0.00 0.00 0.00 76 1015.9
20260906141026 26 226 0.0 1.6 0.00 0.00 0.00 75 1015.8
20260906140013 26 211 0.0 1.6 0.00 0.00 0.00 76 1015.4
20260906135504 26 263 0.0 0.0 0.00 0.00 0.00 76 1015.2
20260906134959 26 264 0.0 0.0 0.00 0.00 0.00 76 1015.2
20260906134455 26 264 0.0 0.0 0.00 0.00 0.00 76 1015.3
20260906133441 26 264 0.0 0.0 0.00 0.00 0.00 76 1015.2
20260906132936 26 263 0.0 0.0 0.00 0.00 0.00 76 1015.3
20260906132430 26 263 0.0 0.0 0.00 0.00 0.00 76 1015.3
20260906131922 26 263 0.0 0.0 0.00 0.00 0.00 77 1015.3
20260906131418 25 263 0.0 0.0 0.00 0.00 0.00 77 1015.2
20260906130912 25 263 0.0 0.0 0.00 0.00 0.00 77 1015.2
20260906130406 25 264 0.0 0.0 0.00 0.00 0.00 78 1015.1
20260906125900 25 264 0.0 0.0 0.00 0.00 0.00 78 1015.1
20260906124847 25 263 0.0 0.0 0.00 0.00 0.00 79 1014.9
20260906123835 25 57 0.0 0.0 0.00 0.00 0.00 79 1014.8
20260906123330 25 57 0.0 0.0 0.00 0.00 0.00 80 1014.7
20260906122824 25 57 0.0 0.0 0.00 0.00 0.00 80 1014.6
20260906122318 25 57 0.0 0.0 0.00 0.00 0.00 80 1014.6
20260906121812 25 57 0.0 0.0 0.00 0.00 0.00 80 1014.5
20260906120800 25 57 0.0 0.0 0.00 0.00 0.00 80 1014.4
20260906115242 25 57 0.0 0.0 0.00 0.00 0.00 79 1014.3
20260906114736 25 57 0.0 0.0 0.00 0.00 0.00 79 1014.3
20260906114230 25 57 0.0 0.0 0.00 0.00 0.00 79 1014.2
20260906113724 25 57 0.0 0.0 0.00 0.00 0.00 79 1014.1
20260906113218 25 57 0.0 0.0 0.00 0.00 0.00 79 1014.1
20260906112712 25 57 0.0 0.0 0.00 0.00 0.00 79 1014.0
20260906112206 25 57 0.0 0.0 0.00 0.00 0.00 79 1014.0
20260906111659 25 57 0.0 0.0 0.00 0.00 0.00 79 1014.0
20260906111153 25 57 0.0 0.0 0.00 0.00 0.00 79 1014.0
20260906110648 25 57 0.0 0.0 0.00 0.00 0.00 79 1014.0
20260906110141 25 57 0.0 0.0 0.00 0.00 0.00 78 1014.0
20260906105130 25 57 0.0 0.0 0.00 0.00 0.00 78 1013.9
20260906104624 25 57 0.0 0.0 0.00 0.00 0.00 78 1014.1
20260906104118 25 57 0.0 0.0 0.00 0.00 0.00 77 1014.1
20260906102559 25 57 0.0 0.0 0.00 0.00 0.00 77 1014.0
20260906102054 25 57 0.0 0.0 0.00 0.00 0.00 77 1013.9
20260906101548 25 57 0.0 0.0 0.00 0.00 0.00 76 1013.9
20260906101041 25 57 0.0 0.0 0.00 0.00 0.00 76 1013.9
20260906100536 25 57 0.0 0.0 0.00 0.00 0.00 76 1013.9
20260906095523 26 57 0.0 0.0 0.00 0.00 0.00 76 1013.8
20260906095018 26 57 0.0 0.0 0.00 0.00 0.00 75 1013.8
20260906094512 26 57 0.0 0.0 0.00 0.00 0.00 75 1013.8
20260906094006 26 249 0.0 0.0 0.00 0.00 0.00 75 1013.8
20260906092953 25 248 0.0 0.0 0.00 0.00 0.00 75 1013.8
20260906092448 25 216 0.0 0.0 0.00 0.00 0.00 76 1013.8
20260906091436 25 216 0.0 0.0 0.00 0.00 0.00 76 1013.9
20260906090930 25 216 0.0 0.0 0.00 0.00 0.00 76 1013.9
20260906090424 25 216 0.0 0.0 0.00 0.00 0.00 77 1014.0
20260906085918 25 216 0.0 0.0 0.00 0.00 0.00 77 1014.0
20260906085412 25 216 0.0 0.0 0.00 0.00 0.00 76 1014.0
20260906084906 26 216 0.0 0.0 0.00 0.00 0.00 76 1014.0
20260906084400 26 216 0.0 0.0 0.00 0.00 0.00 76 1014.0
20260906083858 26 30 0.0 0.0 0.00 0.00 0.00 75 1014.0
20260906083343 26 30 0.0 0.0 0.00 0.00 0.00 75 1014.0
20260906082839 26 30 0.0 0.0 0.00 0.00 0.00 75 1013.9
20260906081840 26 30 0.0 0.0 0.00 0.00 0.00 75 1013.9
20260906081337 26 30 0.0 0.0 0.00 0.00 0.00 74 1013.9
20260906075333 26 30 0.0 0.0 0.00 0.00 0.00 72 1013.8
20260906074831 26 30 0.0 0.0 0.00 0.00 0.00 72 1013.9
20260906073828 26 30 0.0 0.0 0.00 0.00 0.00 71 1013.9
20260906072326 27 30 0.0 0.0 0.00 0.00 0.00 70 1013.6
20260906071826 27 30 0.0 0.0 0.00 0.00 0.00 70 1013.6
20260906071324 26 30 0.0 0.0 0.00 0.00 0.00 71 1013.7
20260906070825 26 30 0.0 1.6 0.00 0.00 0.00 71 1013.5
20260906070325 26 30 0.0 1.6 0.00 0.00 0.00 72 1013.7
20260906065824 26 30 0.0 0.0 0.00 0.00 0.00 72 1013.8
20260906065325 26 30 0.0 0.0 0.00 0.00 0.00 73 1013.9
20260906064825 26 30 0.0 0.0 0.00 0.00 0.00 73 1013.9
20260906064325 26 30 0.0 0.0 0.00 0.00 0.00 74 1013.9
20260906063824 26 30 0.0 0.0 0.00 0.00 0.00 74 1013.9
20260906063325 26 30 0.0 0.0 0.00 0.00 0.00 74 1013.9
20260906062824 26 30 0.0 0.0 0.00 0.00 0.00 74 1013.8
20260906062325 26 30 0.0 0.0 0.00 0.00 0.00 74 1013.9
20260906061824 26 30 0.0 0.0 0.00 0.00 0.00 73 1014.0
20260906061326 26 30 0.0 0.0 0.00 0.00 0.00 73 1014.0
20260906060824 27 30 0.0 0.0 0.00 0.00 0.00 72 1014.0
20260906060324 27 30 0.0 0.0 0.00 0.00 0.00 72 1014.0
20260906055825 27 30 0.0 0.0 0.00 0.00 0.00 71 1014.0
20260906055325 27 30 0.0 0.0 0.00 0.00 0.00 71 1014.0
20260906054827 27 30 0.0 0.0 0.00 0.00 0.00 70 1014.1
20260906054321 27 30 0.0 0.0 0.00 0.00 0.00 70 1014.1
20260906053309 27 30 0.0 0.0 0.00 0.00 0.00 69 1014.1
20260906052804 27 30 0.0 0.0 0.00 0.00 0.00 69 1014.1
20260906052256 27 285 0.0 0.0 0.00 0.00 0.00 68 1014.1
20260906051752 27 285 0.0 0.0 0.00 0.00 0.00 68 1014.0
20260906050748 27 286 0.0 0.0 0.00 0.00 0.00 67 1014.0
20260906050244 28 285 0.0 0.0 0.00 0.00 0.00 67 1014.0
20260906045743 28 285 0.0 0.0 0.00 0.00 0.00 66 1014.0
20260906044226 28 235 0.0 0.0 0.00 0.00 0.00 65 1013.9
20260906043214 28 209 0.0 0.0 0.00 0.00 0.00 65 1013.8
20260906042707 28 209 0.0 0.0 0.00 0.00 0.00 65 1013.9
20260906042202 28 209 0.0 0.0 0.00 0.00 0.00 65 1013.9
20260906041656 28 209 0.0 0.0 0.00 0.00 0.00 65 1013.9
20260906041150 28 209 0.0 0.0 0.00 0.00 0.00 65 1013.8
20260906040644 28 209 0.0 0.0 0.00 0.00 0.00 66 1013.8
20260906040137 28 209 0.0 0.0 0.00 0.00 0.00 66 1013.9
20260906035631 28 209 0.0 0.0 0.00 0.00 0.00 66 1013.9
20260906035125 28 209 0.0 0.0 0.00 0.00 0.00 66 1013.8
20260906034620 28 209 0.0 0.0 0.00 0.00 0.00 67 1013.9
20260906034114 28 209 0.0 0.0 0.00 0.00 0.00 67 1013.9
20260906033608 28 209 0.0 0.0 0.00 0.00 0.00 67 1013.9
20260906033101 28 209 0.0 0.0 0.00 0.00 0.00 67 1013.8
20260906032555 28 209 0.0 0.0 0.00 0.00 0.00 66 1013.8
20260906031544 28 209 0.0 0.0 0.00 0.00 0.00 65 1013.7
20260906031037 28 209 0.0 0.0 0.00 0.00 0.00 65 1013.5
20260906030532 29 209 0.0 0.0 0.00 0.00 0.00 65 1013.4
20260906025520 29 209 0.0 0.0 0.00 0.00 0.00 64 1013.2
20260906025014 29 209 0.0 0.0 0.00 0.00 0.00 64 1013.2
20260906024507 29 209 0.0 0.0 0.00 0.00 0.00 64 1013.2
20260906024002 29 209 0.0 0.0 0.00 0.00 0.00 63 1013.1
20260906023456 30 209 0.0 0.0 0.00 0.00 0.00 63 1013.1
20260906022950 30 209 0.0 0.0 0.00 0.00 0.00 63 1012.9
20260906022448 30 209 0.0 0.0 0.00 0.00 0.00 63 1012.8
20260906021948 30 209 0.0 0.0 0.00 0.00 0.00 63 1012.7
20260906021447 30 209 0.0 0.0 0.00 0.00 0.00 63 1012.6
20260906020948 30 209 0.0 0.0 0.00 0.00 0.00 63 1012.5
20260906020444 30 209 0.0 0.0 0.00 0.00 0.00 63 1012.5
20260906015943 30 209 0.0 0.0 0.00 0.00 0.00 62 1012.4
20260906014944 30 209 0.0 0.0 0.00 0.00 0.00 61 1012.3
20260906014440 30 209 0.0 0.0 0.00 0.00 0.00 61 1012.3
20260906013940 30 209 0.0 0.0 0.00 0.00 0.00 60 1012.2
20260906013438 31 209 0.0 0.0 0.00 0.00 0.00 59 1012.1
20260906012936 31 209 0.0 0.0 0.00 0.00 0.00 59 1012.0
20260906012433 31 209 0.0 0.0 0.00 0.00 0.00 58 1011.9
20260906011930 31 209 0.0 0.0 0.00 0.00 0.00 58 1011.8
20260906011430 31 209 0.0 0.0 0.00 0.00 0.00 57 1011.8
20260906005925 32 209 0.0 0.0 0.00 0.00 0.00 54 1011.7
20260906005426 33 209 0.0 0.0 0.00 0.00 0.00 53 1011.6
20260906004920 33 209 0.0 0.0 0.00 0.00 0.00 52 1011.6
20260906004420 33 209 0.0 0.0 0.00 0.00 0.00 52 1011.7
20260906003921 34 209 0.0 0.0 0.00 0.00 0.00 51 1011.8
20260906003420 35 209 0.0 0.0 0.00 0.00 0.00 50 1011.8
20260906002921 35 209 0.0 0.0 0.00 0.00 0.00 49 1011.8
20260906002421 35 209 0.0 1.6 0.00 0.00 0.00 49 1011.8
20260906001921 35 211 0.0 1.6 0.00 0.00 0.00 48 1011.9
20260906001421 35 245 0.0 0.0 0.00 0.00 0.00 47 1011.9
20260906000922 36 216 0.0 0.0 0.00 0.00 0.00 47 1011.9
20260906000420 35 234 0.0 0.0 0.00 0.00 0.00 46 1012.0
20260905235921 36 225 0.0 0.0 0.00 0.00 0.00 46 1011.9
20260905234421 36 240 0.0 1.6 0.00 0.00 0.00 46 1011.8
20260905233920 36 298 0.0 1.6 0.00 0.00 0.00 45 1011.8
20260905233420 36 190 0.0 3.2 0.00 0.00 0.00 45 1011.7
20260905232920 36 238 0.0 3.2 0.00 0.00 0.00 44 1011.7
20260905232424 36 57 0.0 3.2 0.00 0.00 0.00 44 1011.6
20260905231918 36 226 0.0 8.0 0.00 0.00 0.00 43 1011.6
20260905231413 36 219 0.0 8.0 0.00 0.00 0.00 44 1011.5
20260905230905 36 138 0.0 4.8 0.00 0.00 0.00 42 1011.5
20260905230359 37 232 0.0 4.8 0.00 0.00 0.00 42 1011.5
20260905225853 37 198 0.0 1.6 0.00 0.00 0.00 43 1011.6
20260905225347 37 86 0.0 1.6 0.00 0.00 0.00 44 1011.6
20260905224841 37 86 0.0 1.6 0.00 0.00 0.00 42 1011.6
20260905224336 37 32 0.0 0.0 0.00 0.00 0.00 43 1011.5
20260905223829 37 302 0.0 3.2 0.00 0.00 0.00 44 1011.5
20260905223323 37 38 0.0 3.2 0.00 0.00 0.00 42 1011.5
20260905222817 37 78 0.0 3.2 0.00 0.00 0.00 43 1011.6
20260905222311 38 90 0.0 3.2 0.00 0.00 0.00 41 1011.5
20260905221806 38 79 0.0 1.6 0.00 0.00 0.00 43 1011.5
20260905221258 38 79 0.0 3.2 0.00 0.00 0.00 43 1011.5
20260905220246 37 87 0.0 4.8 0.00 0.00 0.00 44 1011.5
20260905215741 37 44 0.0 1.6 0.00 0.00 0.00 44 1011.5
20260905215236 37 70 0.0 1.6 0.00 0.00 0.00 43 1011.5
20260905214729 38 232 0.0 3.2 0.00 0.00 0.00 43 1011.5
20260905214222 37 76 0.0 3.2 0.00 0.00 0.00 44 1011.6
20260905213718 38 38 0.0 1.6 0.00 0.00 0.00 45 1011.6
20260905213210 37 82 0.0 3.2 0.00 0.00 0.00 44 1011.7
20260905212706 37 84 0.0 4.8 0.00 0.00 0.00 44 1011.7
20260905211146 38 80 0.0 1.6 0.00 0.00 0.00 43 1012.0
20260905210135 38 85 0.0 3.2 0.00 0.00 0.00 41 1012.2
20260905204112 38 88 0.0 1.6 0.00 0.00 0.00 43 1012.5
20260905203605 38 88 0.0 1.6 0.00 0.00 0.00 42 1012.5
20260905202554 37 71 0.0 4.8 0.00 0.00 0.00 44 1012.8
20260905202048 37 62 0.0 3.2 0.00 0.00 0.00 46 1012.9
20260905201541 37 350 0.0 14.5 0.00 0.00 0.00 45 1013.1
20260905201035 36 57 0.0 14.5 0.00 0.00 0.00 47 1013.1
20260905200022 36 29 0.0 4.8 0.00 0.00 0.00 48 1013.3
20260905195516 36 273 0.0 1.6 0.00 0.00 0.00 49 1013.4
20260905195011 36 13 1.6 14.5 0.00 0.00 0.00 50 1013.5
20260905194506 35 49 3.2 24.1 0.00 0.00 0.00 51 1013.7
20260905193958 35 24 1.6 24.1 0.00 0.00 0.00 49 1013.9
20260905193453 35 59 0.0 4.8 0.00 0.00 0.00 52 1013.9
20260905192946 35 82 0.0 4.8 0.00 0.00 0.00 53 1014.0
20260905192442 35 105 0.0 4.8 0.00 0.00 0.00 52 1014.1
20260905191935 35 45 0.0 9.7 0.00 0.00 0.00 51 1014.1